Weather in Kodaikanal

India     10°13′53″N   77°29′17″E
temp.,
°C
wind,
m/s
gust,
m/s
humid.,
%
clouds,
%
prec.,
mm/h
press.,
hPa
HPBL,
m
18 april, sun
sun1823:30+19ssw238996 1.1 101657
02:30+20w2183100 0.3 101417
05:30+19wsw1183100 1.1 101515
08:30+23ene116896 0.6 1016227
11:30+27e125468 1.4 10151320
14:30+26ene2355100 0.5 1012833
17:30+23sse237337 0.8 1012110
20:30+20s2285100 0.9 101545
19 april, mon
mon1923:30+19sw2285100 0.9 101643
02:30+19w228097 0.0 101324
05:30+19wnw1176100 0.0 101311
08:30+23sw1268100 0.0 101496
11:30+29e223837 0.0 10131894
14:30+30e343666 0.0 10093088
17:30+24e1157100 0.1 101029
20:30+22wnw016896 0.1 101214
20 april, tue
tue2023:30+20wsw11777 0.2 101313
02:30+20w217590 0.1 101124
05:30+19w11805 0.4 101211
08:30+25ne125820 0.0 1013495
11:30+29ene24428 0.2 10122286
14:30+28e234198 0.1 10082201
17:30+23sw2266100 0.3 101048
20:30+22n2276100 2.0 101253
21 april, wed
wed2123:30+20wsw2488100 5.3 101380
02:30+20w118069 0.2 101111
05:30+19w118393 0.4 101311
08:30+24sse116563 0.2 1014378
11:30+29ene234296 0.2 10131956
14:30+29ene343953 0.0 10102345
17:30+27ene234893 0.0 1010180
20:30+22se22669 0.3 101331
22 april, thu
thu2223:30+20ssw22918 0.8 101445
02:30+19sw218644 0.1 101222
05:30+19w21818 0.1 101314
08:30+25ene116090 0.0 1014516
11:30+29ene244158 0.0 10132138
14:30+30ene333681 0.0 10092920
17:30+26ese2349100 0.0 101087
20:30+22ssw236768 0.0 101369